Regional Weather Roundup
Issued by NWS

Home | Current Version | Previous Version | Graphics & Text | Print | Product List | Glossary On
Versions: 1 2 3 4 5 6 7 8 9 10 11 12 13 14 15 16 17 18 19 20 21 22 23 24 25 26 27 28 29 30 31 32 33 34 35 36 37 38 39 40 41 42 43 44 45 46 47 48 49 50
344
ASUS45 KPSR 211510
RWRAZ

ARIZONA HOURLY REGIONAL WEATHER ROUNDUP
NATIONAL WEATHER SERVICE PHOENIX AZ
800 AM MST TUE FEB 21 2017

NOTE: FAIR INDICATES FEW OR NO CLOUDS BELOW 12,000 FEET WITH NO
SIGNIFICANT WEATHER AND/OR OBSTRUCTIONS TO VISIBILITY.

AZZ001>003-036-211600-
NORTHWEST ARIZONA

CITY           SKY/WX    TMP DP  RH WIND       PRES   REMARKS
BULLHEAD CITY  MOCLDY    57  52  82 CALM      30.31R
KINGMAN        PTCLDY    44  40  85 SE8       30.34R
$$

AZZ004>008-015-016-018-211600-
NORTH CENTRAL ARIZONA

CITY           SKY/WX    TMP DP  RH WIND       PRES   REMARKS
GRAND CANYON   PTCLDY    33  33 100 CALM      30.40R
WILLIAMS       CLEAR     34  32  93 S7        30.41R WCI  28
PRESCOTT       CLEAR     38  36  92 SW3       30.38R
FLAGSTAFF      CLEAR     32  32 100 CALM      30.41S
PAYSON         SUNNY     48  39  71 CALM      30.40R
PAGE           CLEAR     44  35  70 CALM      30.31R
$$

AZZ009>014-017-211600-
NORTHEAST ARIZONA

CITY           SKY/WX    TMP DP  RH WIND       PRES   REMARKS
WINSLOW        SUNNY     37  34  89 E8        30.39S WCI  31
SAINT JOHNS    SUNNY     34  30  85 CALM      30.40R
WINDOW ROCK    SUNNY     30  26  85 CALM      30.43R
SHOW LOW       SUNNY     32  32 100 CALM      30.42R
$$

AZZ023-211600-
GREATER PHOENIX AREA

CITY           SKY/WX    TMP DP  RH WIND       PRES   REMARKS
PHOENIX        MOSUNNY   54  49  83 SE6       30.29R
BUCKEYE        CLEAR     50  50 100 CALM      30.31R
GLENDALE       CLEAR     52  50  93 CALM      30.32R
LUKE AFB       CLEAR     51  51 100 CALM      30.29R
DEER VALLEY    SUNNY     53  48  83 NE3       30.30R
SCOTTSDALE     SUNNY     54  48  80 CALM      30.29R
MESA-FALCON    SUNNY    N/A N/A N/A N12       30.27S
MESA-GATEWAY   SUNNY     48  46  93 VRB5      30.31R
CHANDLER       SUNNY     50  48  93 CALM      30.31
$$

AZZ027-028-211600-
SOUTHWEST MARICOPA COUNTY AND PINAL COUNTY

CITY           SKY/WX    TMP DP  RH WIND       PRES   REMARKS
CASA GRANDE    NOT AVBL
GILA BEND      CLEAR     52  50  93 E6        30.29R
$$

AZZ503-504-507>509-211600-
SOUTHEAST ARIZONA

CITY           SKY/WX    TMP DP  RH WIND       PRES   REMARKS
TUCSON         SUNNY     48  42  80 CALM      30.33S
DAVIS-MONTHAN  SUNNY     47  43  84 CALM      30.32S
RYAN FIELD     SUNNY     45  43  93 CALM      30.34R
NOGALES        SUNNY     42  39  89 CALM      30.33R
SIERRA VISTA   SUNNY     48  42  80 S3        30.36R
DOUGLAS        SUNNY     41  39  93 N3        30.35R
SAFFORD        SUNNY     46  42  86 CALM      30.34R
$$

AZZ020-021-025-026-031-211600-
SOUTHWEST ARIZONA

CITY           SKY/WX    TMP DP  RH WIND       PRES   REMARKS
YUMA           PTCLDY    58  52  80 N8        30.28R
$$

CAZ031-033-041-043-047-048-061-211600-
SOUTHERN CALIFORNIA

CITY           SKY/WX    TMP DP  RH WIND       PRES   REMARKS
DOWNTOWN L.A.  CLOUDY    60  56  86 CALM      30.29S
L.A. AIRPORT   MOCLDY    58  56  93 CALM      30.29S
SAN DIEGO      MOCLDY    56  50  80 N3        30.31R
BURBANK        CLOUDY    56  54  93 CALM      30.29R
ONTARIO        MOCLDY    57  54  89 CALM      30.30S
RIVERSIDE      MOCLDY    56  55  97 CALM      30.30S
PALM SPRINGS   PTCLDY    56  53  90 W3        30.29R
EL CENTRO NAS  MOCLDY    52  48  87 W3        30.29R
IMPERIAL       MOCLDY    50  49  96 W3        30.27R FOG
BLYTHE         PTCLDY    52  52 100 N6        30.29R
NEEDLES        MOCLDY    57  51  80 NW5       30.30R
$$

NVZ020-UTZ003-211600-
SOUTHERN NEVADA-UTAH

CITY           SKY/WX    TMP DP  RH WIND       PRES   REMARKS
LAS VEGAS      MOCLDY    61  39  44 S10       30.20R
SALT LAKE CITY PTCLDY    52  38  58 S18G30    30.04S
$$

NMZ009-TXZ055-211600-
NEW MEXICO-WEST TEXAS

CITY           SKY/WX    TMP DP  RH WIND       PRES   REMARKS
ALBUQUERQUE    CLOUDY    45  33  63 N8        30.37R
EL PASO        SUNNY     44  31  60 E5        30.30R
$$


........................KEY........................
SKY/WX - SKY CONDITION/WEATHER
TMP    - TEMPERATURE IN FAHRENHEIT
DP     - DEW POINT IN FAHRENHEIT
RH     - RELATIVE HUMIDITY IN PERCENT
WIND   - DIRECTION AND SPEED IN MILES PER HOUR (MPH)
VRB    - VARIABLE WIND DIRECTION
PRES   - MEAN SEA LEVEL PRESSURE IN INCHES OF MERCURY
         F - FALLING PRESSURE   R - RISING PRESSURE
         S - STEADY PRESSURE
VSB    - VISIBILITY IN MILES
HX     - HEAT INDEX IN FAHRENHEIT
WCI    - WIND CHILL INDEX IN FAHRENHEIT
TC     - TEMPERATURE IN CELSIUS WHICH IS ALSO KNOWN AS
         TEMPERATURE IN CENTIGRADE
AFB    - AIR FORCE BASE
         LUKE AFB IS LUKE AIR FORCE BASE
         DAVIS-MONTHAN IS DAVIS-MONTHAN AIR FORCE BASE
NAS    - NAVAL AIR STATION
         EL CENTRO NAS IS EL CENTRO NAVAL AIR STATION
N/A    - NOT AVAILABLE





USA.gov is the U.S. government's official web portal to all federal, state and local government web resources and services.